This is the latest recevied weather packets stored in our database for station/object KC3SOZ. If no packets are shown the sender has not sent any weather packets the latest 10 day(s).
| Time | Temp. | Humidity | Pressure | Rain* | Wind** | Luminosity | Snow |
|---|---|---|---|---|---|---|---|
| 1777859650 | 6.11° C | 79% | 1014.2 hPa | 0 mm | - | 0 W/m² | - |
| 1777859346 | 6.67° C | 75% | 1014.4 hPa | 0 mm | - | 0 W/m² | - |
| 1777859042 | 6.67° C | 75% | 1014.5 hPa | 0 mm | - | 0 W/m² | - |
| 1777858739 | 6.67° C | 74% | 1014.2 hPa | 0 mm | - | 0 W/m² | - |
| 1777858437 | 7.22° C | 74% | 1014.3 hPa | 0 mm | - | 0 W/m² | - |
| 1777858133 | 7.22° C | 74% | 1014.3 hPa | 0 mm | - | 0 W/m² | - |
| 1777857831 | 7.78° C | 73% | 1014.2 hPa | 0 mm | - | 0 W/m² | - |
| 1777857529 | 7.78° C | 70% | 1014 hPa | 0 mm | - | 0 W/m² | - |
| 1777857225 | 7.78° C | 69% | 1014 hPa | 0 mm | - | 0 W/m² | - |
| 1777856921 | 8.33° C | 68% | 1014 hPa | 0 mm | - | 0 W/m² | - |
| 1777856617 | 8.89° C | 67% | 1014.2 hPa | 0 mm | - | 0 W/m² | - |
| 1777856313 | 9.44° C | 63% | 1013.8 hPa | 0 mm | - | 0 W/m² | - |
| 1777856010 | 9.44° C | 61% | 1013.9 hPa | 0 mm | - | 0 W/m² | - |
| 1777855708 | 9.44° C | 61% | 1013.9 hPa | 0 mm | - | 0 W/m² | - |
| 1777855405 | 10° C | 61% | 1013.8 hPa | 0 mm | - | 0 W/m² | - |
| 1777855101 | 10° C | 60% | 1014 hPa | 0 mm | - | 0 W/m² | - |
| 1777854799 | 10.56° C | 58% | 1013.8 hPa | 0 mm | - | 0 W/m² | - |
| 1777854495 | 10.56° C | 57% | 1013.7 hPa | 0 mm | - | 0 W/m² | - |
| 1777854192 | 11.11° C | 55% | 1013.6 hPa | 0 mm | - | 0 W/m² | - |
| 1777853890 | 11.67° C | 52% | 1013.4 hPa | 0 mm | - | 0 W/m² | - |
| 1777853587 | 11.67° C | 51% | 1013.4 hPa | 0 mm | - | 1 W/m² | - |
| 1777853284 | 11.67° C | 52% | 1013.5 hPa | 0 mm | - | 2 W/m² | - |
| 1777852981 | 12.22° C | 50% | 1013.4 hPa | 0 mm | - | 4 W/m² | - |
| 1777852679 | 12.22° C | 51% | 1013.3 hPa | 0 mm | - | 6 W/m² | - |
| 1777852376 | 12.78° C | 48% | 1013.5 hPa | 0 mm | - | 9 W/m² | - |
* Rain latest hour (hover to see other rain measurements)
** Current wind speed in m/s (hover to see current wind gust speed)